Iron Mountain, MI

6:29 PM CDT on March 26, 2017 (GMT -0500)
Ford

Weather History for KIMT - August, 2013

Change the Weather History Date:

Friday, August 30, 2013

  Actual Average Record
Temperature  
Mean Temperature 70 °F -  
Max Temperature 77 °F 76 °F 94 °F (1991)
Min Temperature 61 °F 52 °F 32 °F (1931)
Cooling Degree Days 4    
Growing Degree Days 20 (Base 50)    
Moisture  
Dew Point 63 °F    
Average Humidity 80    
Maximum Humidity 94    
Minimum Humidity 61    
Precipitation  
Precipitation 0.22 in - - ()
Sea Level Pressure  
Sea Level Pressure 29.87 in    
Wind  
Wind Speed 9 mph (NNW)    
Max Wind Speed 17 mph    
Max Gust Speed 28 mph    
Visibility 10 miles    
Events Rain , Thunderstorm    
Averages and records for this station are not official NWS values.
T = Trace of Precipitation, MM = Missing Value Source: NWS Daily Summary

Daily Weather History Graph

Daily Weather History Graph

Search for Another Location

Airport or City:

Trip Planner

Search our weather history database for the weather conditions in past years. The results will help you decide how hot, cold, wet, or windy it might be!

Date:

Astronomy

Aug. 30, 2013 Rise Set
Actual Time 6:11 AM CDT 7:33 PM CDT
Civil Twilight 5:40 AM CDT 8:04 PM CDT
Nautical Twilight 5:02 AM CDT 8:41 PM CDT
Astronomical Twilight 4:22 AM CDT 9:21 PM CDT
Moon 12:40 AM CDT (8/30) 3:58 PM CDT (8/30)
Length of Visible Light 14h 24m
Length of Day
13h 22m
Waning Crescent, 29% of the Moon is Illuminated
Aug 30
Waning Crescent
Sep 5
New
Sep 12
First Quarter
Sep 19
Full
Sep 26
Last Quarter

Hourly Weather History & Observations

Time (CDT) Temp. Dew Point Humidity Pressure Visibility Wind Dir Wind Speed Gust Speed Precip Events Conditions
12:54 AM 72.0 °F 69.1 °F 91% 29.86 in 10.0 mi South 9.2 mph - 0.00 in   Mostly Cloudy
1:19 AM 71.6 °F 69.8 °F 94% 29.90 in 10.0 mi Variable 6.9 mph - 0.00 in Rain , Thunderstorm Light Thunderstorms and Rain
1:54 AM 71.1 °F 66.0 °F 84% 29.91 in 3.0 mi SSW 8.1 mph - 0.09 in Rain , Thunderstorm Heavy Thunderstorms and Rain
1:56 AM 69.8 °F 66.2 °F 88% 29.92 in 1.8 mi SSW 9.2 mph - 0.09 in Rain , Thunderstorm Heavy Thunderstorms and Rain
2:05 AM 69.8 °F 64.4 °F 83% 29.89 in 3.0 mi SSE 9.2 mph 17.3 mph 0.13 in Rain , Thunderstorm Light Thunderstorms and Rain
2:18 AM 69.8 °F 64.4 °F 83% 29.88 in 10.0 mi South 9.2 mph - 0.13 in   Mostly Cloudy
2:54 AM 68.0 °F 64.9 °F 90% 29.83 in 10.0 mi SSE 9.2 mph - 0.13 in   Scattered Clouds
3:54 AM 68.0 °F 64.9 °F 90% 29.80 in 10.0 mi South 8.1 mph 20.7 mph N/A   Clear
4:54 AM 69.1 °F 66.0 °F 90% 29.81 in 10.0 mi South 3.5 mph - N/A   Mostly Cloudy
5:54 AM 69.1 °F 66.0 °F 90% 29.78 in 10.0 mi SSW 4.6 mph - N/A   Overcast
6:49 AM 69.8 °F 66.2 °F 88% 29.79 in 10.0 mi West 5.8 mph - N/A   Mostly Cloudy
6:54 AM 71.1 °F 68.0 °F 90% 29.78 in 10.0 mi West 5.8 mph - N/A   Mostly Cloudy
7:40 AM 71.6 °F 69.8 °F 94% 29.80 in 9.0 mi NW 8.1 mph - N/A   Mostly Cloudy
7:54 AM 73.0 °F 70.0 °F 90% 29.79 in 10.0 mi WNW 8.1 mph - N/A   Overcast
8:25 AM 73.4 °F 69.8 °F 88% 29.80 in 10.0 mi NW 15.0 mph - N/A   Overcast
8:52 AM 73.4 °F 66.2 °F 78% 29.81 in 10.0 mi NW 13.8 mph 23.0 mph N/A   Mostly Cloudy
8:54 AM 73.9 °F 66.9 °F 79% 29.79 in 10.0 mi NW 10.4 mph 23.0 mph N/A   Mostly Cloudy
9:54 AM 73.9 °F 64.9 °F 73% 29.81 in 10.0 mi NW 10.4 mph - N/A   Overcast
10:37 AM 73.4 °F 64.4 °F 73% 29.84 in 10.0 mi NNW 17.3 mph 27.6 mph N/A   Scattered Clouds
10:54 AM 73.9 °F 64.0 °F 71% 29.83 in 10.0 mi NNW 15.0 mph 26.5 mph N/A   Mostly Cloudy
11:54 AM 73.9 °F 64.0 °F 71% 29.84 in 10.0 mi NNW 15.0 mph 24.2 mph N/A   Overcast
12:54 PM 75.9 °F 64.0 °F 67% 29.84 in 10.0 mi NNW 12.7 mph 25.3 mph N/A   Mostly Cloudy
1:54 PM 77.0 °F 63.0 °F 62% 29.86 in 10.0 mi North 17.3 mph 24.2 mph N/A   Mostly Cloudy
2:01 PM 77.0 °F 62.6 °F 61% 29.87 in 10.0 mi North 12.7 mph 20.7 mph N/A   Mostly Cloudy
2:10 PM 75.2 °F 62.6 °F 65% 29.88 in 10.0 mi NNW 16.1 mph 21.9 mph N/A   Overcast
2:54 PM 73.9 °F 61.0 °F 64% 29.88 in 10.0 mi North 13.8 mph 23.0 mph N/A   Overcast
3:54 PM 73.0 °F 61.0 °F 66% 29.89 in 10.0 mi North 12.7 mph 23.0 mph N/A   Overcast
4:54 PM 73.9 °F 60.1 °F 62% 29.89 in 10.0 mi North 15.0 mph 23.0 mph N/A   Mostly Cloudy
5:12 PM 73.4 °F 60.8 °F 65% 29.91 in 10.0 mi North 12.7 mph - N/A   Mostly Cloudy
5:32 PM 71.6 °F 60.8 °F 69% 29.91 in 10.0 mi North 16.1 mph 21.9 mph N/A   Overcast
5:47 PM 71.6 °F 60.8 °F 69% 29.91 in 10.0 mi North 10.4 mph - N/A   Mostly Cloudy
5:54 PM 71.1 °F 59.0 °F 66% 29.91 in 10.0 mi North 15.0 mph - N/A   Mostly Cloudy
6:39 PM 69.8 °F 60.8 °F 73% 29.92 in 10.0 mi North 11.5 mph - N/A   Overcast
6:54 PM 69.1 °F 60.1 °F 73% 29.91 in 10.0 mi NNW 10.4 mph - N/A   Overcast
7:35 PM 66.2 °F 60.8 °F 83% 29.93 in 10.0 mi NNW 6.9 mph - N/A   Scattered Clouds
7:54 PM 66.9 °F 60.1 °F 79% 29.92 in 10.0 mi North 4.6 mph - N/A   Partly Cloudy
8:10 PM 66.2 °F 60.8 °F 83% 29.93 in 10.0 mi NNW 5.8 mph - N/A   Mostly Cloudy
8:40 PM 64.4 °F 60.8 °F 88% 29.94 in 10.0 mi North 5.8 mph - N/A   Partly Cloudy
8:54 PM 64.0 °F 60.1 °F 87% 29.93 in 10.0 mi North 4.6 mph - N/A   Partly Cloudy
9:44 PM 64.4 °F 60.8 °F 88% 29.94 in 10.0 mi Calm Calm - N/A   Mostly Cloudy
9:54 PM 63.0 °F 60.1 °F 90% 29.93 in 10.0 mi North 3.5 mph - N/A   Mostly Cloudy
10:25 PM 62.6 °F 60.8 °F 94% 29.93 in 10.0 mi Calm Calm - N/A   Scattered Clouds
10:54 PM 64.9 °F 59.0 °F 81% 29.93 in 10.0 mi North 6.9 mph - N/A   Mostly Cloudy
11:14 PM 64.4 °F 59.0 °F 83% 29.93 in 10.0 mi North 5.8 mph - N/A   Scattered Clouds
11:54 PM 61.0 °F 57.9 °F 90% 29.91 in 10.0 mi North 4.6 mph - N/A   Clear